owner,sensor,date,latitude,longitude,sea_surface_height_above_sea_level,qcFlag 
TCOON,ioos:station:TCOON:068:1,2016-07-01T00:18:00Z,27.2970,-97.4049,4.214,1111122 
TCOON,ioos:station:TCOON:068:1,2016-07-01T01:12:00Z,27.2970,-97.4049,4.22,1111122 
TCOON,ioos:station:TCOON:068:1,2016-07-01T02:18:00Z,27.2970,-97.4049,4.215,1111122 
TCOON,ioos:station:TCOON:068:1,2016-07-01T03:18:00Z,27.2970,-97.4049,4.225,1111122 
TCOON,ioos:station:TCOON:068:1,2016-07-01T04:18:00Z,27.2970,-97.4049,4.228,1111122 
TCOON,ioos:station:TCOON:068:1,2016-07-01T05:18:00Z,27.2970,-97.4049,4.23,1111122 
TCOON,ioos:station:TCOON:068:1,2016-07-01T06:18:00Z,27.2970,-97.4049,4.236,1111122 
TCOON,ioos:station:TCOON:068:1,2016-07-01T07:18:00Z,27.2970,-97.4049,4.233,1111122 
TCOON,ioos:station:TCOON:068:1,2016-07-01T08:18:00Z,27.2970,-97.4049,4.238,1111122 
TCOON,ioos:station:TCOON:068:1,2016-07-01T09:18:00Z,27.2970,-97.4049,4.236,1111122 
TCOON,ioos:station:TCOON:068:1,2016-07-01T10:18:00Z,27.2970,-97.4049,4.223,1111122 
TCOON,ioos:station:TCOON:068:1,2016-07-01T11:18:00Z,27.2970,-97.4049,4.222,1111122 
TCOON,ioos:station:TCOON:068:1,2016-07-01T12:18:00Z,27.2970,-97.4049,4.222,1111122 
TCOON,ioos:station:TCOON:068:1,2016-07-01T13:18:00Z,27.2970,-97.4049,4.221,1111122 
TCOON,ioos:station:TCOON:068:1,2016-07-01T14:12:00Z,27.2970,-97.4049,4.222,1111122 
TCOON,ioos:station:TCOON:068:1,2016-07-01T15:18:00Z,27.2970,-97.4049,4.22,1111122 
TCOON,ioos:station:TCOON:068:1,2016-07-01T16:18:00Z,27.2970,-97.4049,4.207,1111122 
TCOON,ioos:station:TCOON:068:1,2016-07-01T17:18:00Z,27.2970,-97.4049,4.212,1111122 
TCOON,ioos:station:TCOON:068:1,2016-07-01T18:18:00Z,27.2970,-97.4049,4.209,1111122 
TCOON,ioos:station:TCOON:068:1,2016-07-01T19:18:00Z,27.2970,-97.4049,4.192,1111122 
TCOON,ioos:station:TCOON:068:1,2016-07-01T20:18:00Z,27.2970,-97.4049,4.18,1111122 
TCOON,ioos:station:TCOON:068:1,2016-07-01T21:18:00Z,27.2970,-97.4049,4.178,1111122 
TCOON,ioos:station:TCOON:068:1,2016-07-01T22:18:00Z,27.2970,-97.4049,4.186,1111122 
TCOON,ioos:station:TCOON:068:1,2016-07-02T00:12:00Z,27.2970,-97.4049,4.177,1111122 
TCOON,ioos:station:TCOON:068:1,2016-07-02T01:18:00Z,27.2970,-97.4049,4.178,1111122 
TCOON,ioos:station:TCOON:068:1,2016-07-02T02:18:00Z,27.2970,-97.4049,4.19,1111122 
TCOON,ioos:station:TCOON:068:1,2016-07-02T03:18:00Z,27.2970,-97.4049,4.199,1111122 
TCOON,ioos:station:TCOON:068:1,2016-07-02T04:18:00Z,27.2970,-97.4049,4.21,1111122 
TCOON,ioos:station:TCOON:068:1,2016-07-02T05:18:00Z,27.2970,-97.4049,4.216,1111122 
TCOON,ioos:station:TCOON:068:1,2016-07-02T06:18:00Z,27.2970,-97.4049,4.213,1111122 
TCOON,ioos:station:TCOON:068:1,2016-07-02T07:18:00Z,27.2970,-97.4049,4.219,1111122 
TCOON,ioos:station:TCOON:068:1,2016-07-02T08:18:00Z,27.2970,-97.4049,4.22,1111122 
TCOON,ioos:station:TCOON:068:1,2016-07-02T09:12:00Z,27.2970,-97.4049,4.221,1111122 
TCOON,ioos:station:TCOON:068:1,2016-07-02T10:18:00Z,27.2970,-97.4049,4.21,1111122 
TCOON,ioos:station:TCOON:068:1,2016-07-02T11:18:00Z,27.2970,-97.4049,4.202,1111122 
TCOON,ioos:station:TCOON:068:1,2016-07-02T12:18:00Z,27.2970,-97.4049,4.203,1111122 
TCOON,ioos:station:TCOON:068:1,2016-07-02T13:18:00Z,27.2970,-97.4049,4.203,1111122 
TCOON,ioos:station:TCOON:068:1,2016-07-02T14:18:00Z,27.2970,-97.4049,4.208,1111122 
TCOON,ioos:station:TCOON:068:1,2016-07-02T15:18:00Z,27.2970,-97.4049,4.199,1111122 
TCOON,ioos:station:TCOON:068:1,2016-07-02T16:18:00Z,27.2970,-97.4049,4.186,1111122 
TCOON,ioos:station:TCOON:068:1,2016-07-02T17:18:00Z,27.2970,-97.4049,4.181,1111122 
TCOON,ioos:station:TCOON:068:1,2016-07-02T18:18:00Z,27.2970,-97.4049,4.165,1111122 
TCOON,ioos:station:TCOON:068:1,2016-07-02T19:18:00Z,27.2970,-97.4049,4.149,1111122 
TCOON,ioos:station:TCOON:068:1,2016-07-02T21:18:00Z,27.2970,-97.4049,4.122,1111122 
TCOON,ioos:station:TCOON:068:1,2016-07-02T22:18:00Z,27.2970,-97.4049,4.119,1111122 
TCOON,ioos:station:TCOON:068:1,2016-07-02T23:18:00Z,27.2970,-97.4049,4.119,1111122 
TCOON,ioos:station:TCOON:068:1,2016-07-03T00:18:00Z,27.2970,-97.4049,4.123,1111122 
TCOON,ioos:station:TCOON:068:1,2016-07-03T01:18:00Z,27.2970,-97.4049,4.127,1111122 
TCOON,ioos:station:TCOON:068:1,2016-07-03T02:18:00Z,27.2970,-97.4049,4.144,1111122 
TCOON,ioos:station:TCOON:068:1,2016-07-03T03:18:00Z,27.2970,-97.4049,4.171,1111122 
TCOON,ioos:station:TCOON:068:1,2016-07-03T04:18:00Z,27.2970,-97.4049,4.186,1111122 
TCOON,ioos:station:TCOON:068:1,2016-07-03T05:18:00Z,27.2970,-97.4049,4.18,1111122 
TCOON,ioos:station:TCOON:068:1,2016-07-03T06:18:00Z,27.2970,-97.4049,4.178,1111122 
TCOON,ioos:station:TCOON:068:1,2016-07-03T07:18:00Z,27.2970,-97.4049,4.17,1111122 
TCOON,ioos:station:TCOON:068:1,2016-07-03T08:18:00Z,27.2970,-97.4049,4.176,1111122 
TCOON,ioos:station:TCOON:068:1,2016-07-03T09:18:00Z,27.2970,-97.4049,4.179,1111122 
TCOON,ioos:station:TCOON:068:1,2016-07-03T10:18:00Z,27.2970,-97.4049,4.181,1111122 
TCOON,ioos:station:TCOON:068:1,2016-07-03T11:18:00Z,27.2970,-97.4049,4.177,1111122 
TCOON,ioos:station:TCOON:068:1,2016-07-03T12:18:00Z,27.2970,-97.4049,4.175,1111122 
TCOON,ioos:station:TCOON:068:1,2016-07-03T13:18:00Z,27.2970,-97.4049,4.176,1111122 
TCOON,ioos:station:TCOON:068:1,2016-07-03T14:18:00Z,27.2970,-97.4049,4.174,1111122 
TCOON,ioos:station:TCOON:068:1,2016-07-03T15:18:00Z,27.2970,-97.4049,4.167,1111122 
TCOON,ioos:station:TCOON:068:1,2016-07-03T16:18:00Z,27.2970,-97.4049,4.154,1111122 
TCOON,ioos:station:TCOON:068:1,2016-07-03T17:18:00Z,27.2970,-97.4049,4.157,1111122 
TCOON,ioos:station:TCOON:068:1,2016-07-03T18:18:00Z,27.2970,-97.4049,4.146,1111122 
TCOON,ioos:station:TCOON:068:1,2016-07-03T19:18:00Z,27.2970,-97.4049,4.115,1111122 
TCOON,ioos:station:TCOON:068:1,2016-07-03T20:18:00Z,27.2970,-97.4049,4.086,1111122 
TCOON,ioos:station:TCOON:068:1,2016-07-03T21:18:00Z,27.2970,-97.4049,4.067,1111122 
TCOON,ioos:station:TCOON:068:1,2016-07-03T22:18:00Z,27.2970,-97.4049,4.065,1111122 
TCOON,ioos:station:TCOON:068:1,2016-07-03T23:18:00Z,27.2970,-97.4049,4.067,1111122 
TCOON,ioos:station:TCOON:068:1,2016-07-04T00:18:00Z,27.2970,-97.4049,4.061,1111122 
TCOON,ioos:station:TCOON:068:1,2016-07-04T01:18:00Z,27.2970,-97.4049,4.065,1111122 
TCOON,ioos:station:TCOON:068:1,2016-07-04T02:18:00Z,27.2970,-97.4049,4.072,1111122 
TCOON,ioos:station:TCOON:068:1,2016-07-04T03:18:00Z,27.2970,-97.4049,4.11,1111122 
TCOON,ioos:station:TCOON:068:1,2016-07-04T04:18:00Z,27.2970,-97.4049,4.131,1111122 
TCOON,ioos:station:TCOON:068:1,2016-07-04T05:18:00Z,27.2970,-97.4049,4.143,1111122 
TCOON,ioos:station:TCOON:068:1,2016-07-04T06:18:00Z,27.2970,-97.4049,4.149,1111122 
TCOON,ioos:station:TCOON:068:1,2016-07-04T07:18:00Z,27.2970,-97.4049,4.145,1111122 
TCOON,ioos:station:TCOON:068:1,2016-07-04T08:18:00Z,27.2970,-97.4049,4.151,1111122 
TCOON,ioos:station:TCOON:068:1,2016-07-04T09:18:00Z,27.2970,-97.4049,4.139,1111122 
TCOON,ioos:station:TCOON:068:1,2016-07-04T10:18:00Z,27.2970,-97.4049,4.136,1111122 
TCOON,ioos:station:TCOON:068:1,2016-07-04T11:18:00Z,27.2970,-97.4049,4.131,1111122 
TCOON,ioos:station:TCOON:068:1,2016-07-04T12:18:00Z,27.2970,-97.4049,4.129,1111122 
TCOON,ioos:station:TCOON:068:1,2016-07-04T13:18:00Z,27.2970,-97.4049,4.132,1111122 
TCOON,ioos:station:TCOON:068:1,2016-07-04T14:18:00Z,27.2970,-97.4049,4.148,1111122 
TCOON,ioos:station:TCOON:068:1,2016-07-04T15:18:00Z,27.2970,-97.4049,4.14,1111122 
TCOON,ioos:station:TCOON:068:1,2016-07-04T16:18:00Z,27.2970,-97.4049,4.122,1111122 
TCOON,ioos:station:TCOON:068:1,2016-07-04T17:18:00Z,27.2970,-97.4049,4.101,1111122 
TCOON,ioos:station:TCOON:068:1,2016-07-04T18:18:00Z,27.2970,-97.4049,4.099,1111122 
TCOON,ioos:station:TCOON:068:1,2016-07-04T19:18:00Z,27.2970,-97.4049,4.082,1111122 
TCOON,ioos:station:TCOON:068:1,2016-07-04T20:18:00Z,27.2970,-97.4049,4.068,1111122 
TCOON,ioos:station:TCOON:068:1,2016-07-04T21:18:00Z,27.2970,-97.4049,4.058,1111122 
TCOON,ioos:station:TCOON:068:1,2016-07-04T22:18:00Z,27.2970,-97.4049,4.043,1111122 
TCOON,ioos:station:TCOON:068:1,2016-07-04T23:18:00Z,27.2970,-97.4049,4.025,1111122 
TCOON,ioos:station:TCOON:068:1,2016-07-05T00:12:00Z,27.2970,-97.4049,4.019,1111122 
TCOON,ioos:station:TCOON:068:1,2016-07-05T01:18:00Z,27.2970,-97.4049,4.031,1111122 
TCOON,ioos:station:TCOON:068:1,2016-07-05T02:18:00Z,27.2970,-97.4049,4.071,1111122 
TCOON,ioos:station:TCOON:068:1,2016-07-05T03:18:00Z,27.2970,-97.4049,4.107,1111122 
TCOON,ioos:station:TCOON:068:1,2016-07-05T04:18:00Z,27.2970,-97.4049,4.11,1111122 
TCOON,ioos:station:TCOON:068:1,2016-07-05T05:18:00Z,27.2970,-97.4049,4.092,1111122 
TCOON,ioos:station:TCOON:068:1,2016-07-05T06:18:00Z,27.2970,-97.4049,4.089,1111122 
TCOON,ioos:station:TCOON:068:1,2016-07-05T07:18:00Z,27.2970,-97.4049,4.09,1111122 
TCOON,ioos:station:TCOON:068:1,2016-07-05T08:18:00Z,27.2970,-97.4049,4.106,1111122 
TCOON,ioos:station:TCOON:068:1,2016-07-05T09:18:00Z,27.2970,-97.4049,4.109,1111122 
TCOON,ioos:station:TCOON:068:1,2016-07-05T10:18:00Z,27.2970,-97.4049,4.122,1111122 
TCOON,ioos:station:TCOON:068:1,2016-07-05T11:18:00Z,27.2970,-97.4049,4.117,1111122 
TCOON,ioos:station:TCOON:068:1,2016-07-05T12:18:00Z,27.2970,-97.4049,4.114,1111122 
TCOON,ioos:station:TCOON:068:1,2016-07-05T13:18:00Z,27.2970,-97.4049,4.121,1111122 
TCOON,ioos:station:TCOON:068:1,2016-07-05T14:18:00Z,27.2970,-97.4049,4.119,1111122 
TCOON,ioos:station:TCOON:068:1,2016-07-05T15:12:00Z,27.2970,-97.4049,4.105,1111122 
TCOON,ioos:station:TCOON:068:1,2016-07-05T16:18:00Z,27.2970,-97.4049,4.091,1111122 
TCOON,ioos:station:TCOON:068:1,2016-07-05T17:18:00Z,27.2970,-97.4049,4.085,1111122 
TCOON,ioos:station:TCOON:068:1,2016-07-05T18:12:00Z,27.2970,-97.4049,4.085,1111122 
TCOON,ioos:station:TCOON:068:1,2016-07-05T21:18:00Z,27.2970,-97.4049,4.015,1111122 
TCOON,ioos:station:TCOON:068:1,2016-07-05T22:18:00Z,27.2970,-97.4049,4.008,1111122 
TCOON,ioos:station:TCOON:068:1,2016-07-05T23:18:00Z,27.2970,-97.4049,3.998,1111122 
TCOON,ioos:station:TCOON:068:1,2016-07-06T00:18:00Z,27.2970,-97.4049,4.011,1111122 
TCOON,ioos:station:TCOON:068:1,2016-07-06T01:18:00Z,27.2970,-97.4049,4.032,1111122 
TCOON,ioos:station:TCOON:068:1,2016-07-06T02:18:00Z,27.2970,-97.4049,4.054,1111122 
TCOON,ioos:station:TCOON:068:1,2016-07-06T03:18:00Z,27.2970,-97.4049,4.053,1111122 
TCOON,ioos:station:TCOON:068:1,2016-07-06T04:18:00Z,27.2970,-97.4049,4.081,1111122 
TCOON,ioos:station:TCOON:068:1,2016-07-06T05:18:00Z,27.2970,-97.4049,4.087,1111122 
TCOON,ioos:station:TCOON:068:1,2016-07-06T06:18:00Z,27.2970,-97.4049,4.094,1111122 
TCOON,ioos:station:TCOON:068:1,2016-07-06T07:18:00Z,27.2970,-97.4049,4.088,1111122 
TCOON,ioos:station:TCOON:068:1,2016-07-06T08:18:00Z,27.2970,-97.4049,4.087,1111122 
TCOON,ioos:station:TCOON:068:1,2016-07-06T09:18:00Z,27.2970,-97.4049,4.108,1111122 
TCOON,ioos:station:TCOON:068:1,2016-07-06T10:18:00Z,27.2970,-97.4049,4.097,1111122 
TCOON,ioos:station:TCOON:068:1,2016-07-06T11:18:00Z,27.2970,-97.4049,4.088,1111122 
TCOON,ioos:station:TCOON:068:1,2016-07-06T12:18:00Z,27.2970,-97.4049,4.09,1111122 
TCOON,ioos:station:TCOON:068:1,2016-07-06T13:18:00Z,27.2970,-97.4049,4.089,1111122 
TCOON,ioos:station:TCOON:068:1,2016-07-06T14:18:00Z,27.2970,-97.4049,4.089,1111122 
TCOON,ioos:station:TCOON:068:1,2016-07-06T15:18:00Z,27.2970,-97.4049,4.074,1111122 
TCOON,ioos:station:TCOON:068:1,2016-07-06T16:18:00Z,27.2970,-97.4049,4.064,1111122 
TCOON,ioos:station:TCOON:068:1,2016-07-06T17:18:00Z,27.2970,-97.4049,4.042,1111122 
TCOON,ioos:station:TCOON:068:1,2016-07-06T18:18:00Z,27.2970,-97.4049,4.035,1111122 
TCOON,ioos:station:TCOON:068:1,2016-07-06T19:18:00Z,27.2970,-97.4049,4.032,1111122 
TCOON,ioos:station:TCOON:068:1,2016-07-06T20:18:00Z,27.2970,-97.4049,4.015,1111122 
TCOON,ioos:station:TCOON:068:1,2016-07-06T21:18:00Z,27.2970,-97.4049,4.002,1111122 
TCOON,ioos:station:TCOON:068:1,2016-07-06T22:18:00Z,27.2970,-97.4049,4.001,1111122 
TCOON,ioos:station:TCOON:068:1,2016-07-06T23:18:00Z,27.2970,-97.4049,3.996,1111122 
TCOON,ioos:station:TCOON:068:1,2016-07-07T00:18:00Z,27.2970,-97.4049,3.985,1111122 
TCOON,ioos:station:TCOON:068:1,2016-07-07T01:18:00Z,27.2970,-97.4049,3.997,1111122 
TCOON,ioos:station:TCOON:068:1,2016-07-07T02:18:00Z,27.2970,-97.4049,4.023,1111122 
TCOON,ioos:station:TCOON:068:1,2016-07-07T03:18:00Z,27.2970,-97.4049,4.048,1111122 
TCOON,ioos:station:TCOON:068:1,2016-07-07T04:18:00Z,27.2970,-97.4049,4.061,1111122 
TCOON,ioos:station:TCOON:068:1,2016-07-07T05:18:00Z,27.2970,-97.4049,4.07,1111122 
TCOON,ioos:station:TCOON:068:1,2016-07-07T06:18:00Z,27.2970,-97.4049,4.072,1111122 
TCOON,ioos:station:TCOON:068:1,2016-07-07T07:18:00Z,27.2970,-97.4049,4.071,1111122 
TCOON,ioos:station:TCOON:068:1,2016-07-07T08:18:00Z,27.2970,-97.4049,4.079,1111122 
TCOON,ioos:station:TCOON:068:1,2016-07-07T09:18:00Z,27.2970,-97.4049,4.072,1111122 
TCOON,ioos:station:TCOON:068:1,2016-07-07T10:18:00Z,27.2970,-97.4049,4.063,1111122 
TCOON,ioos:station:TCOON:068:1,2016-07-07T11:18:00Z,27.2970,-97.4049,4.064,1111122 
TCOON,ioos:station:TCOON:068:1,2016-07-07T12:18:00Z,27.2970,-97.4049,4.068,1111122 
TCOON,ioos:station:TCOON:068:1,2016-07-07T13:18:00Z,27.2970,-97.4049,4.076,1111122 
TCOON,ioos:station:TCOON:068:1,2016-07-07T14:18:00Z,27.2970,-97.4049,4.083,1111122 
TCOON,ioos:station:TCOON:068:1,2016-07-07T15:18:00Z,27.2970,-97.4049,4.074,1111122 
TCOON,ioos:station:TCOON:068:1,2016-07-07T16:18:00Z,27.2970,-97.4049,4.051,1111122 
TCOON,ioos:station:TCOON:068:1,2016-07-07T17:18:00Z,27.2970,-97.4049,4.037,1111122 
TCOON,ioos:station:TCOON:068:1,2016-07-07T18:18:00Z,27.2970,-97.4049,4.038,1111122 
TCOON,ioos:station:TCOON:068:1,2016-07-07T19:18:00Z,27.2970,-97.4049,4.016,1111122 
TCOON,ioos:station:TCOON:068:1,2016-07-07T20:18:00Z,27.2970,-97.4049,3.987,1111122 
TCOON,ioos:station:TCOON:068:1,2016-07-07T21:18:00Z,27.2970,-97.4049,3.975,1111122 
TCOON,ioos:station:TCOON:068:1,2016-07-07T22:18:00Z,27.2970,-97.4049,3.973,1111122 
TCOON,ioos:station:TCOON:068:1,2016-07-07T23:18:00Z,27.2970,-97.4049,3.984,1111122 
TCOON,ioos:station:TCOON:068:1,2016-07-08T00:18:00Z,27.2970,-97.4049,3.988,1111122 
TCOON,ioos:station:TCOON:068:1,2016-07-08T01:18:00Z,27.2970,-97.4049,4.008,1111122 
TCOON,ioos:station:TCOON:068:1,2016-07-08T02:18:00Z,27.2970,-97.4049,4.023,1111122 
TCOON,ioos:station:TCOON:068:1,2016-07-08T03:18:00Z,27.2970,-97.4049,4.045,1111122 
TCOON,ioos:station:TCOON:068:1,2016-07-08T04:24:00Z,27.2970,-97.4049,4.061,1111122 
TCOON,ioos:station:TCOON:068:1,2016-07-08T05:18:00Z,27.2970,-97.4049,4.057,1111122 
TCOON,ioos:station:TCOON:068:1,2016-07-08T06:18:00Z,27.2970,-97.4049,4.061,1111122 
TCOON,ioos:station:TCOON:068:1,2016-07-08T07:18:00Z,27.2970,-97.4049,4.068,1111122 
TCOON,ioos:station:TCOON:068:1,2016-07-08T08:18:00Z,27.2970,-97.4049,4.076,1111122 
TCOON,ioos:station:TCOON:068:1,2016-07-08T09:18:00Z,27.2970,-97.4049,4.077,1111122 
TCOON,ioos:station:TCOON:068:1,2016-07-08T10:18:00Z,27.2970,-97.4049,4.068,1111122 
TCOON,ioos:station:TCOON:068:1,2016-07-08T11:18:00Z,27.2970,-97.4049,4.068,1111122 
TCOON,ioos:station:TCOON:068:1,2016-07-08T12:18:00Z,27.2970,-97.4049,4.062,1111122 
TCOON,ioos:station:TCOON:068:1,2016-07-08T13:18:00Z,27.2970,-97.4049,4.061,1111122 
TCOON,ioos:station:TCOON:068:1,2016-07-08T14:18:00Z,27.2970,-97.4049,4.07,1111122 
TCOON,ioos:station:TCOON:068:1,2016-07-08T15:18:00Z,27.2970,-97.4049,4.065,1111122 
TCOON,ioos:station:TCOON:068:1,2016-07-08T16:18:00Z,27.2970,-97.4049,4.039,1111122 
TCOON,ioos:station:TCOON:068:1,2016-07-08T17:18:00Z,27.2970,-97.4049,4.011,1111122 
TCOON,ioos:station:TCOON:068:1,2016-07-08T18:18:00Z,27.2970,-97.4049,4.007,1111122 
TCOON,ioos:station:TCOON:068:1,2016-07-08T19:18:00Z,27.2970,-97.4049,4.009,1111122 
TCOON,ioos:station:TCOON:068:1,2016-07-08T20:18:00Z,27.2970,-97.4049,4.011,1111122 
TCOON,ioos:station:TCOON:068:1,2016-07-08T21:18:00Z,27.2970,-97.4049,4.007,1111122 
TCOON,ioos:station:TCOON:068:1,2016-07-08T22:18:00Z,27.2970,-97.4049,4.003,1111122 
TCOON,ioos:station:TCOON:068:1,2016-07-08T23:18:00Z,27.2970,-97.4049,3.999,1111122 
TCOON,ioos:station:TCOON:068:1,2016-07-09T00:18:00Z,27.2970,-97.4049,4.005,1111122 
TCOON,ioos:station:TCOON:068:1,2016-07-09T01:18:00Z,27.2970,-97.4049,4.026,1111122 
TCOON,ioos:station:TCOON:068:1,2016-07-09T02:18:00Z,27.2970,-97.4049,4.041,1111122 
TCOON,ioos:station:TCOON:068:1,2016-07-09T03:18:00Z,27.2970,-97.4049,4.056,1111122 
TCOON,ioos:station:TCOON:068:1,2016-07-09T04:18:00Z,27.2970,-97.4049,4.066,1111122 
TCOON,ioos:station:TCOON:068:1,2016-07-09T05:18:00Z,27.2970,-97.4049,4.069,1111122 
TCOON,ioos:station:TCOON:068:1,2016-07-09T06:18:00Z,27.2970,-97.4049,4.068,1111122 
TCOON,ioos:station:TCOON:068:1,2016-07-09T07:18:00Z,27.2970,-97.4049,4.066,1111122 
TCOON,ioos:station:TCOON:068:1,2016-07-09T08:18:00Z,27.2970,-97.4049,4.07,1111122 
TCOON,ioos:station:TCOON:068:1,2016-07-09T09:18:00Z,27.2970,-97.4049,4.08,1111122 
TCOON,ioos:station:TCOON:068:1,2016-07-09T10:18:00Z,27.2970,-97.4049,4.075,1111122 
TCOON,ioos:station:TCOON:068:1,2016-07-09T11:18:00Z,27.2970,-97.4049,4.077,1111122 
TCOON,ioos:station:TCOON:068:1,2016-07-09T12:18:00Z,27.2970,-97.4049,4.077,1111122 
TCOON,ioos:station:TCOON:068:1,2016-07-09T13:18:00Z,27.2970,-97.4049,4.073,1111122 
TCOON,ioos:station:TCOON:068:1,2016-07-09T14:18:00Z,27.2970,-97.4049,4.078,1111122 
TCOON,ioos:station:TCOON:068:1,2016-07-09T15:18:00Z,27.2970,-97.4049,4.074,1111122 
TCOON,ioos:station:TCOON:068:1,2016-07-09T16:18:00Z,27.2970,-97.4049,4.065,1111122 
TCOON,ioos:station:TCOON:068:1,2016-07-09T17:18:00Z,27.2970,-97.4049,4.053,1111122 
TCOON,ioos:station:TCOON:068:1,2016-07-09T18:18:00Z,27.2970,-97.4049,4.038,1111122 
TCOON,ioos:station:TCOON:068:1,2016-07-09T19:18:00Z,27.2970,-97.4049,4.034,1111122 
TCOON,ioos:station:TCOON:068:1,2016-07-09T20:18:00Z,27.2970,-97.4049,4.021,1111122 
TCOON,ioos:station:TCOON:068:1,2016-07-09T21:18:00Z,27.2970,-97.4049,4.011,1111122 
TCOON,ioos:station:TCOON:068:1,2016-07-09T22:18:00Z,27.2970,-97.4049,4.007,1111122 
TCOON,ioos:station:TCOON:068:1,2016-07-09T23:18:00Z,27.2970,-97.4049,4.009,1111122 
TCOON,ioos:station:TCOON:068:1,2016-07-10T00:18:00Z,27.2970,-97.4049,4.014,1111122 
TCOON,ioos:station:TCOON:068:1,2016-07-10T01:18:00Z,27.2970,-97.4049,4.024,1111122 
TCOON,ioos:station:TCOON:068:1,2016-07-10T02:18:00Z,27.2970,-97.4049,4.036,1111122 
TCOON,ioos:station:TCOON:068:1,2016-07-10T03:18:00Z,27.2970,-97.4049,4.063,1111122 
TCOON,ioos:station:TCOON:068:1,2016-07-10T04:18:00Z,27.2970,-97.4049,4.082,1111122 
TCOON,ioos:station:TCOON:068:1,2016-07-10T05:18:00Z,27.2970,-97.4049,4.087,1111122 
TCOON,ioos:station:TCOON:068:1,2016-07-10T06:18:00Z,27.2970,-97.4049,4.09,1111122 
TCOON,ioos:station:TCOON:068:1,2016-07-10T07:18:00Z,27.2970,-97.4049,4.079,1111122 
TCOON,ioos:station:TCOON:068:1,2016-07-10T08:18:00Z,27.2970,-97.4049,4.074,1111122 
TCOON,ioos:station:TCOON:068:1,2016-07-10T09:18:00Z,27.2970,-97.4049,4.087,1111122 
TCOON,ioos:station:TCOON:068:1,2016-07-10T10:18:00Z,27.2970,-97.4049,4.104,1111122 
TCOON,ioos:station:TCOON:068:1,2016-07-10T11:18:00Z,27.2970,-97.4049,4.098,1111122 
TCOON,ioos:station:TCOON:068:1,2016-07-10T12:18:00Z,27.2970,-97.4049,4.088,1111122 
TCOON,ioos:station:TCOON:068:1,2016-07-10T13:18:00Z,27.2970,-97.4049,4.09,1111122 
TCOON,ioos:station:TCOON:068:1,2016-07-10T14:18:00Z,27.2970,-97.4049,4.082,1111122 
TCOON,ioos:station:TCOON:068:1,2016-07-10T15:18:00Z,27.2970,-97.4049,4.062,1111122 
TCOON,ioos:station:TCOON:068:1,2016-07-10T16:18:00Z,27.2970,-97.4049,4.052,1111122 
TCOON,ioos:station:TCOON:068:1,2016-07-10T17:18:00Z,27.2970,-97.4049,4.072,1111122 
TCOON,ioos:station:TCOON:068:1,2016-07-10T18:18:00Z,27.2970,-97.4049,4.065,1111122 
TCOON,ioos:station:TCOON:068:1,2016-07-10T19:18:00Z,27.2970,-97.4049,4.043,1111122 
TCOON,ioos:station:TCOON:068:1,2016-07-10T20:18:00Z,27.2970,-97.4049,4.019,1111122 
TCOON,ioos:station:TCOON:068:1,2016-07-10T21:18:00Z,27.2970,-97.4049,3.993,1111122 
TCOON,ioos:station:TCOON:068:1,2016-07-10T22:18:00Z,27.2970,-97.4049,3.982,1111122 
TCOON,ioos:station:TCOON:068:1,2016-07-10T23:18:00Z,27.2970,-97.4049,3.975,1111122 
TCOON,ioos:station:TCOON:068:1,2016-07-11T00:18:00Z,27.2970,-97.4049,4.001,1111122 
TCOON,ioos:station:TCOON:068:1,2016-07-11T01:18:00Z,27.2970,-97.4049,4.012,1111122 
TCOON,ioos:station:TCOON:068:1,2016-07-11T02:18:00Z,27.2970,-97.4049,4.029,1111122 
TCOON,ioos:station:TCOON:068:1,2016-07-11T03:18:00Z,27.2970,-97.4049,4.045,1111122 
TCOON,ioos:station:TCOON:068:1,2016-07-11T04:18:00Z,27.2970,-97.4049,4.054,1111122 
TCOON,ioos:station:TCOON:068:1,2016-07-11T05:18:00Z,27.2970,-97.4049,4.05,1111122 
TCOON,ioos:station:TCOON:068:1,2016-07-11T06:18:00Z,27.2970,-97.4049,4.042,1111122 
TCOON,ioos:station:TCOON:068:1,2016-07-11T07:12:00Z,27.2970,-97.4049,4.053,1111122 
TCOON,ioos:station:TCOON:068:1,2016-07-11T08:18:00Z,27.2970,-97.4049,4.062,1111122 
TCOON,ioos:station:TCOON:068:1,2016-07-11T09:18:00Z,27.2970,-97.4049,4.062,1111122 
TCOON,ioos:station:TCOON:068:1,2016-07-11T10:18:00Z,27.2970,-97.4049,4.072,1111122 
TCOON,ioos:station:TCOON:068:1,2016-07-11T11:18:00Z,27.2970,-97.4049,4.07,1111122 
TCOON,ioos:station:TCOON:068:1,2016-07-11T12:18:00Z,27.2970,-97.4049,4.067,1111122 
TCOON,ioos:station:TCOON:068:1,2016-07-11T13:18:00Z,27.2970,-97.4049,4.069,1111122 
TCOON,ioos:station:TCOON:068:1,2016-07-11T14:18:00Z,27.2970,-97.4049,4.07,1111122 
TCOON,ioos:station:TCOON:068:1,2016-07-11T15:18:00Z,27.2970,-97.4049,4.054,1111122 
TCOON,ioos:station:TCOON:068:1,2016-07-11T16:18:00Z,27.2970,-97.4049,4.041,1111122 
TCOON,ioos:station:TCOON:068:1,2016-07-11T17:18:00Z,27.2970,-97.4049,4.04,1111122 
TCOON,ioos:station:TCOON:068:1,2016-07-11T18:18:00Z,27.2970,-97.4049,4.03,1111122 
TCOON,ioos:station:TCOON:068:1,2016-07-11T19:18:00Z,27.2970,-97.4049,4.004,1111122 
TCOON,ioos:station:TCOON:068:1,2016-07-11T20:18:00Z,27.2970,-97.4049,3.979,1111122 
TCOON,ioos:station:TCOON:068:1,2016-07-11T21:18:00Z,27.2970,-97.4049,3.957,1111122 
TCOON,ioos:station:TCOON:068:1,2016-07-11T22:18:00Z,27.2970,-97.4049,3.951,1111122 
TCOON,ioos:station:TCOON:068:1,2016-07-11T23:18:00Z,27.2970,-97.4049,3.955,1111122 
TCOON,ioos:station:TCOON:068:1,2016-07-12T00:18:00Z,27.2970,-97.4049,3.973,1111122 
TCOON,ioos:station:TCOON:068:1,2016-07-12T01:18:00Z,27.2970,-97.4049,3.984,1111122 
TCOON,ioos:station:TCOON:068:1,2016-07-12T02:18:00Z,27.2970,-97.4049,4.011,1111122 
TCOON,ioos:station:TCOON:068:1,2016-07-12T03:18:00Z,27.2970,-97.4049,4.044,1111122 
TCOON,ioos:station:TCOON:068:1,2016-07-12T04:18:00Z,27.2970,-97.4049,4.063,1111122 
TCOON,ioos:station:TCOON:068:1,2016-07-12T05:18:00Z,27.2970,-97.4049,4.065,1111122 
TCOON,ioos:station:TCOON:068:1,2016-07-12T06:18:00Z,27.2970,-97.4049,4.063,1111122 
TCOON,ioos:station:TCOON:068:1,2016-07-12T07:18:00Z,27.2970,-97.4049,4.053,1111122 
TCOON,ioos:station:TCOON:068:1,2016-07-12T08:18:00Z,27.2970,-97.4049,4.055,1111122 
TCOON,ioos:station:TCOON:068:1,2016-07-12T09:18:00Z,27.2970,-97.4049,4.061,1111122 
TCOON,ioos:station:TCOON:068:1,2016-07-12T10:18:00Z,27.2970,-97.4049,4.069,1111122 
TCOON,ioos:station:TCOON:068:1,2016-07-12T11:18:00Z,27.2970,-97.4049,4.068,1111122 
TCOON,ioos:station:TCOON:068:1,2016-07-12T12:18:00Z,27.2970,-97.4049,4.062,1111122 
TCOON,ioos:station:TCOON:068:1,2016-07-12T13:18:00Z,27.2970,-97.4049,4.061,1111122 
TCOON,ioos:station:TCOON:068:1,2016-07-12T14:18:00Z,27.2970,-97.4049,4.065,1111122 
TCOON,ioos:station:TCOON:068:1,2016-07-12T15:18:00Z,27.2970,-97.4049,4.055,1111122 
TCOON,ioos:station:TCOON:068:1,2016-07-12T16:18:00Z,27.2970,-97.4049,4.044,1111122 
TCOON,ioos:station:TCOON:068:1,2016-07-12T17:18:00Z,27.2970,-97.4049,4.038,1111122 
TCOON,ioos:station:TCOON:068:1,2016-07-12T18:18:00Z,27.2970,-97.4049,4.025,1111122 
TCOON,ioos:station:TCOON:068:1,2016-07-12T19:18:00Z,27.2970,-97.4049,4.019,1111122 
TCOON,ioos:station:TCOON:068:1,2016-07-12T20:18:00Z,27.2970,-97.4049,4.002,1111122 
TCOON,ioos:station:TCOON:068:1,2016-07-12T21:18:00Z,27.2970,-97.4049,3.999,1111122 
TCOON,ioos:station:TCOON:068:1,2016-07-12T22:18:00Z,27.2970,-97.4049,3.999,1111122 
TCOON,ioos:station:TCOON:068:1,2016-07-12T23:18:00Z,27.2970,-97.4049,3.996,1111122 
TCOON,ioos:station:TCOON:068:1,2016-07-13T00:18:00Z,27.2970,-97.4049,4.015,1111122 